GFSGL_prec_pwat_162.txt.gz
Precipitable_Water
1.72 1.75 1.67 1.60 1.66 1.68 1.72 1.74 1.74 1.70 1.77 1.80 1.74 1.94 1.84 1.72 1.65 1.69 1.61 1.60 1.58 1.69 1.70 1.65 1.79 2.06 1.67 1.44 1.55 1.48 1.42 1.41 1.21 1.34 1.56 1.75 1.74 1.84 1.75 1.95 1.91 1.86 1.76
1.92 1.80 1.75 1.69 1.63 1.62 1.60 1.84 1.83 1.77 1.78 1.54 1.31 1.86 1.79 1.73 1.65 1.84 1.69 1.66 1.63 1.47 1.52 1.67 1.60 1.77 1.68 1.73 1.68 1.54 1.44 1.48 1.48 1.29 1.33 1.42 1.51 1.74 1.88 1.85 2.03 2.10 2.04
1.99 2.02 1.91 1.74 1.68 1.63 1.58 1.66 1.88 1.73 1.59 1.64 1.60 1.62 1.53 1.49 1.62 1.69 1.61 1.50 1.56 1.62 1.67 1.83 1.54 1.58 1.62 1.61 1.51 1.54 1.45 1.56 1.66 1.68 1.80 1.65 1.62 1.84 1.92 1.99 2.01 2.14 2.18
2.10 2.00 1.94 1.95 1.75 1.71 1.68 1.66 1.62 1.64 1.57 1.51 1.60 1.60 1.64 1.55 1.71 1.69 1.62 1.56 1.53 1.58 1.52 1.55 1.62 1.66 1.57 1.71 1.67 1.60 1.63 1.53 1.56 1.55 1.58 1.65 1.77 1.98 2.08 1.93 1.86 2.09 2.11
1.79 1.87 2.05 1.99 2.01 1.96 1.70 1.70 1.75 1.71 1.65 1.63 1.58 1.58 1.63 1.66 1.68 1.65 1.68 1.68 1.63 1.64 1.72 1.81 1.76 1.73 1.72 1.93 1.87 1.72 1.66 1.57 1.55 1.56 1.60 1.65 1.71 1.78 1.84 2.00 2.03 2.07 2.20
1.85 1.88 1.91 2.08 1.82 1.95 1.81 1.78 1.75 1.78 1.74 1.74 1.69 1.64 1.58 1.62 1.63 1.63 1.73 1.69 1.68 1.72 1.72 1.82 1.86 1.83 1.82 1.79 1.80 1.82 1.80 1.66 1.57 1.54 1.52 1.52 1.61 1.73 1.86 1.96 1.98 1.90 1.80
1.84 1.85 1.93 2.03 2.23 1.69 1.67 1.94 1.85 1.81 1.82 1.73 1.71 1.68 1.65 1.71 1.71 1.65 1.64 1.68 1.73 1.73 1.71 1.71 1.75 1.80 1.86 1.88 1.94 1.88 1.85 1.86 1.86 1.83 1.75 1.80 1.88 1.98 2.00 1.95 1.94 1.86 1.80
1.85 1.88 1.91 2.05 2.12 2.13 2.05 2.07 2.07 1.95 1.91 1.94 1.90 1.88 1.80 1.77 1.77 1.78 1.78 1.71 1.63 1.62 1.65 1.69 1.69 1.69 1.75 1.76 1.74 1.75 1.79 1.87 1.95 1.92 1.88 1.89 1.90 1.92 1.94 2.02 2.00 2.03 2.10
1.72 1.84 1.95 2.02 1.96 2.17 1.99 1.96 2.10 2.00 1.95 1.97 1.98 2.02 1.99 1.96 1.96 1.96 1.92 1.86 1.76 1.76 1.76 1.73 1.70 1.72 1.78 1.81 1.73 1.68 1.69 1.78 1.87 1.87 1.85 1.88 1.89 1.94 2.00 2.03 1.91 1.88 1.83
1.41 1.55 1.71 1.78 1.83 1.74 1.75 2.02 2.04 1.93 1.80 1.82 1.86 1.92 1.96 1.95 1.99 2.00 2.03 2.02 1.88 1.79 1.81 1.88 1.82 1.78 1.76 1.75 1.74 1.72 1.65 1.71 1.72 1.73 1.81 1.86 1.87 1.86 1.90 1.92 1.88 1.78 1.80
1.50 1.49 1.48 1.60 1.71 1.81 1.84 1.88 2.02 1.96 1.82 1.82 1.83 1.87 1.90 1.85 1.81 1.92 2.00 1.97 1.92 1.90 1.87 1.84 1.83 1.82 1.76 1.71 1.70 1.70 1.68 1.78 1.72 1.70 1.69 1.69 1.70 1.70 1.79 1.85 1.86 1.82 1.76
1.57 1.57 1.55 1.55 1.58 1.71 1.73 1.83 1.85 1.83 1.74 1.73 1.72 1.72 1.80 1.85 1.89 1.98 2.00 1.94 1.93 1.85 1.87 1.91 1.89 1.88 1.84 1.80 1.78 1.74 1.73 1.75 1.72 1.69 1.66 1.67 1.68 1.71 1.74 1.82 1.86 1.85 1.88
1.34 1.23 1.32 1.44 1.51 1.51 1.58 1.56 1.62 1.60 1.57 1.54 1.59 1.58 1.62 1.67 1.74 1.80 1.85 1.95 1.98 1.91 1.93 1.91 1.90 1.89 1.87 1.86 1.82 1.79 1.81 1.78 1.74 1.70 1.66 1.68 1.76 1.78 1.80 1.77 1.76 1.76 1.74
1.12 1.11 1.13 1.17 1.29 1.47 1.59 1.69 1.62 1.58 1.57 1.59 1.56 1.55 1.54 1.54 1.57 1.60 1.61 1.66 1.69 1.73 1.75 1.77 1.78 1.79 1.81 1.82 1.85 1.86 1.82 1.80 1.74 1.68 1.66 1.68 1.69 1.67 1.60 1.60 1.57 1.54 1.46
1.09 1.11 1.14 1.17 1.18 1.22 1.35 1.43 1.48 1.50 1.51 1.55 1.57 1.56 1.48 1.46 1.51 1.56 1.56 1.55 1.57 1.57 1.62 1.64 1.62 1.63 1.61 1.63 1.66 1.66 1.64 1.60 1.53 1.51 1.49 1.47 1.49 1.50 1.46 1.46 1.41 1.34 1.25
1.09 1.13 1.16 1.17 1.18 1.19 1.18 1.23 1.38 1.42 1.48 1.51 1.54 1.51 1.49 1.52 1.52 1.54 1.54 1.48 1.45 1.45 1.39 1.37 1.36 1.34 1.31 1.34 1.35 1.37 1.41 1.43 1.46 1.44 1.40 1.37 1.33 1.27 1.23 1.24 1.19 1.07 0.98
1.07 1.14 1.17 1.17 1.16 1.17 1.19 1.17 1.16 1.29 1.37 1.42 1.45 1.44 1.46 1.49 1.52 1.51 1.48 1.48 1.49 1.47 1.38 1.35 1.34 1.35 1.36 1.39 1.37 1.34 1.32 1.34 1.36 1.32 1.28 1.24 1.21 1.15 1.03 0.92 0.94 0.89 0.79
1.04 1.09 1.11 1.15 1.18 1.19 1.18 1.18 1.18 1.18 1.19 1.24 1.35 1.37 1.40 1.41 1.43 1.45 1.45 1.43 1.36 1.41 1.39 1.33 1.29 1.29 1.26 1.21 1.18 1.14 1.11 1.12 1.10 1.07 1.02 0.96 0.82 0.72 0.72 0.69 0.67 0.65 0.68
1.08 1.00 1.10 1.12 1.11 1.12 1.16 1.16 1.16 1.18 1.20 1.23 1.28 1.31 1.33 1.31 1.34 1.35 1.34 1.29 1.26 1.20 1.18 1.12 1.06 0.98 0.94 0.92 0.90 0.87 0.84 0.81 0.80 0.77 0.73 0.70 0.68 0.66 0.64 0.66 0.64 0.59 0.60
1.03 1.03 1.04 1.05 1.03 1.05 1.06 1.08 1.12 1.13 1.15 1.16 1.16 1.16 1.08 1.08 1.03 1.03 1.07 1.09 1.07 1.01 0.94 0.90 0.90 0.88 0.83 0.77 0.73 0.71 0.71 0.66 0.64 0.68 0.70 0.66 0.64 0.63 0.64 0.60 0.60 0.61 0.59
1.03 1.00 0.97 1.00 0.99 1.00 0.99 1.01 1.03 1.05 1.02 0.99 0.99 0.87 0.83 0.90 0.87 0.85 0.72 0.68 0.72 0.71 0.72 0.71 0.70 0.70 0.72 0.73 0.73 0.70 0.71 0.70 0.69 0.69 0.66 0.63 0.66 0.61 0.60 0.60 0.58 0.59 0.60
1.01 0.84 0.86 0.95 0.94 0.86 0.81 0.73 0.69 0.67 0.65 0.61 0.59 0.49 0.49 0.58 0.63 0.68 0.74 0.72 0.75 0.78 0.77 0.74 0.72 0.74 0.74 0.71 0.67 0.66 0.64 0.63 0.62 0.62 0.62 0.63 0.63 0.59 0.63 0.62 0.61 0.60 0.60
0.83 0.75 0.76 0.84 0.79 0.75 0.74 0.74 0.72 0.70 0.69 0.67 0.63 0.60 0.47 0.55 0.64 0.62 0.64 0.71 0.78 0.77 0.79 0.79 0.80 0.81 0.79 0.76 0.72 0.68 0.66 0.63 0.65 0.63 0.62 0.62 0.64 0.64 0.64 0.63 0.63 0.61 0.62
0.74 0.76 0.78 0.79 0.79 0.74 0.69 0.76 0.79 0.73 0.74 0.78 0.76 0.75 0.73 0.71 0.70 0.67 0.69 0.74 0.76 0.78 0.81 0.82 0.80 0.83 0.89 0.87 0.82 0.77 0.74 0.73 0.72 0.68 0.68 0.68 0.68 0.67 0.63 0.67 0.65 0.65 0.64
0.87 0.72 0.71 0.73 0.76 0.69 0.73 0.74 0.79 0.81 0.76 0.70 0.68 0.75 0.79 0.81 0.81 0.80 0.79 0.79 0.81 0.83 0.85 0.88 0.91 0.93 0.92 0.93 0.86 0.83 0.80 0.78 0.76 0.77 0.74 0.75 0.73 0.75 0.72 0.74 0.74 0.74 0.71
0.72 0.83 0.79 0.77 0.77 0.76 0.75 0.74 0.75 0.74 0.78 0.79 0.78 0.75 0.75 0.80 0.85 0.91 0.95 0.96 0.94 0.92 0.93 0.95 0.94 0.92 0.94 0.93 0.89 0.90 0.85 0.78 0.76 0.77 0.85 0.86 0.84 0.81 0.78 0.78 0.78 0.77 0.77

GFSGL_prec_pwat_165.txt.gz
Precipitable_Water
1.98 1.86 1.72 1.64 1.62 1.58 1.64 1.67 1.66 1.73 1.76 1.75 1.72 1.85 1.83 1.68 1.78 1.56 1.64 1.62 1.58 1.58 1.63 1.68 1.56 1.67 1.79 1.79 1.64 1.58 1.56 1.50 1.35 1.36 1.47 1.67 1.70 1.75 1.80 1.83 1.90 1.93 2.01
1.96 2.06 1.82 1.69 1.60 1.50 1.51 1.64 1.67 1.74 1.76 1.73 1.74 1.79 1.58 1.68 1.60 1.62 1.55 1.61 1.52 1.53 1.49 1.45 1.72 1.64 1.69 1.80 1.70 1.67 1.64 1.61 1.40 1.25 1.64 1.64 1.63 1.79 1.80 1.86 1.95 2.12 2.10
1.94 1.99 1.95 1.81 1.70 1.56 1.49 1.53 1.63 1.75 1.78 1.69 1.67 1.64 1.50 1.46 1.56 1.65 1.56 1.59 1.51 1.54 1.56 1.56 1.57 1.65 1.58 1.62 1.70 1.50 1.58 1.58 1.48 1.36 1.35 1.67 1.81 1.84 1.87 2.11 2.10 2.18 2.16
1.69 1.95 1.90 1.89 1.95 1.83 1.69 1.61 1.49 1.63 1.77 1.73 1.66 1.52 1.59 1.60 1.58 1.54 1.59 1.61 1.55 1.52 1.52 1.55 1.54 1.54 1.59 1.61 1.64 1.62 1.63 1.64 1.61 1.51 1.50 1.56 1.66 1.76 1.86 1.83 1.90 2.09 2.07
1.78 1.70 1.88 1.91 1.87 2.07 1.97 1.85 1.64 1.55 1.61 1.64 1.54 1.50 1.59 1.60 1.62 1.58 1.60 1.66 1.57 1.55 1.59 1.62 1.70 1.76 1.72 1.69 1.67 1.80 1.73 1.65 1.60 1.50 1.45 1.47 1.52 1.56 1.56 1.71 1.75 1.93 2.04
1.66 1.79 1.84 1.88 1.70 2.22 2.14 2.01 1.90 1.80 1.72 1.63 1.57 1.58 1.54 1.61 1.61 1.65 1.62 1.61 1.72 1.67 1.59 1.64 1.71 1.83 1.84 1.87 1.83 1.78 1.82 1.73 1.67 1.63 1.63 1.55 1.54 1.64 1.78 1.79 1.83 1.80 1.68
1.70 1.77 1.74 1.84 2.09 2.01 1.96 1.92 1.91 1.84 1.88 1.77 1.68 1.71 1.67 1.68 1.71 1.69 1.70 1.68 1.68 1.70 1.76 1.71 1.70 1.73 1.77 1.80 1.88 1.88 1.92 1.91 1.91 1.81 1.66 1.68 1.72 1.85 1.89 1.78 1.79 1.78 1.76
1.70 1.77 1.82 1.82 1.84 1.88 2.03 1.96 1.90 1.86 1.97 1.83 1.80 1.76 1.72 1.72 1.76 1.76 1.73 1.75 1.74 1.69 1.66 1.66 1.65 1.64 1.70 1.71 1.72 1.72 1.75 1.77 1.80 1.83 1.82 1.82 1.84 1.87 1.87 1.81 1.78 1.87 1.95
1.61 1.72 1.84 1.93 1.91 1.90 1.81 1.83 1.77 1.87 2.05 1.94 1.98 1.95 1.92 1.90 1.98 1.89 1.82 1.76 1.71 1.75 1.78 1.81 1.79 1.76 1.75 1.71 1.65 1.62 1.68 1.71 1.81 1.84 1.84 1.84 1.81 1.80 1.84 1.82 1.71 1.68 1.67
1.23 1.33 1.48 1.63 1.73 1.76 1.82 1.76 1.79 2.19 2.01 2.12 2.03 2.05 2.07 2.00 2.14 2.12 2.03 1.95 1.88 1.88 1.97 1.93 1.90 1.81 1.81 1.82 1.73 1.67 1.57 1.65 1.68 1.68 1.70 1.71 1.74 1.73 1.71 1.69 1.69 1.58 1.58
1.41 1.40 1.37 1.41 1.49 1.72 1.78 1.82 1.85 1.85 1.96 1.99 1.93 1.90 1.85 1.87 1.89 1.91 1.92 1.92 1.93 1.94 1.99 1.94 1.93 1.96 1.95 1.91 1.86 1.80 1.77 1.83 1.78 1.72 1.71 1.66 1.63 1.64 1.65 1.69 1.76 1.76 1.67
1.46 1.45 1.41 1.36 1.41 1.57 1.63 1.77 1.88 1.82 1.77 1.83 1.79 1.73 1.72 1.74 1.75 1.76 1.85 1.88 1.86 1.82 1.86 1.97 2.00 2.00 1.99 1.96 1.95 1.93 1.93 1.90 1.84 1.76 1.71 1.63 1.62 1.66 1.70 1.75 1.80 1.82 1.83
1.29 1.22 1.23 1.30 1.30 1.38 1.44 1.53 1.61 1.68 1.64 1.63 1.59 1.57 1.58 1.63 1.64 1.67 1.72 1.82 1.92 1.90 1.96 1.99 2.00 1.95 1.95 1.92 1.91 1.90 1.91 1.87 1.81 1.75 1.71 1.72 1.70 1.74 1.76 1.72 1.72 1.71 1.67
1.13 1.10 1.09 1.10 1.13 1.25 1.38 1.44 1.43 1.46 1.48 1.55 1.55 1.53 1.55 1.52 1.53 1.57 1.58 1.60 1.66 1.73 1.80 1.81 1.81 1.75 1.77 1.75 1.73 1.74 1.78 1.75 1.68 1.61 1.59 1.61 1.62 1.59 1.56 1.52 1.47 1.44 1.38
1.04 1.09 1.09 1.09 1.07 1.10 1.16 1.28 1.35 1.44 1.47 1.46 1.50 1.54 1.51 1.46 1.50 1.58 1.57 1.55 1.56 1.56 1.56 1.56 1.51 1.50 1.50 1.48 1.49 1.51 1.50 1.51 1.47 1.45 1.45 1.44 1.43 1.43 1.45 1.42 1.35 1.31 1.19
0.97 1.06 1.09 1.10 1.09 1.08 1.09 1.14 1.31 1.37 1.41 1.44 1.51 1.53 1.49 1.50 1.51 1.51 1.51 1.50 1.50 1.48 1.39 1.32 1.31 1.29 1.25 1.27 1.28 1.30 1.35 1.36 1.37 1.39 1.35 1.32 1.28 1.23 1.16 1.16 1.10 1.03 0.94
0.98 1.03 1.06 1.10 1.09 1.11 1.12 1.10 1.07 1.23 1.32 1.36 1.38 1.42 1.50 1.49 1.48 1.46 1.46 1.46 1.46 1.46 1.38 1.38 1.37 1.35 1.35 1.38 1.37 1.37 1.33 1.33 1.32 1.26 1.20 1.15 1.11 1.03 0.90 0.85 0.84 0.83 0.77
0.97 1.04 1.02 1.03 1.05 1.09 1.12 1.12 1.10 1.10 1.11 1.18 1.31 1.33 1.35 1.39 1.42 1.47 1.47 1.47 1.37 1.38 1.35 1.31 1.28 1.26 1.25 1.22 1.18 1.12 1.07 1.06 1.03 0.98 0.93 0.88 0.75 0.70 0.68 0.65 0.65 0.64 0.65
0.97 1.02 1.05 1.08 1.06 1.03 1.06 1.07 1.07 1.11 1.12 1.14 1.19 1.24 1.29 1.31 1.35 1.38 1.39 1.30 1.20 1.19 1.19 1.15 1.10 0.98 0.89 0.88 0.86 0.84 0.80 0.77 0.77 0.73 0.70 0.67 0.66 0.66 0.63 0.64 0.66 0.63 0.58
1.03 0.96 0.98 0.99 0.98 0.97 1.00 1.02 1.01 1.02 1.04 1.07 1.08 1.05 1.13 1.12 1.09 1.12 1.16 1.14 1.12 1.10 1.00 0.87 0.84 0.81 0.78 0.74 0.68 0.67 0.66 0.64 0.65 0.67 0.66 0.66 0.64 0.65 0.62 0.63 0.61 0.60 0.61
0.98 0.96 0.94 0.95 0.94 0.95 0.99 0.99 0.98 0.97 0.92 1.00 0.94 0.89 0.88 0.94 0.94 0.89 0.83 0.77 0.76 0.77 0.77 0.80 0.78 0.77 0.76 0.74 0.72 0.70 0.71 0.68 0.66 0.66 0.68 0.67 0.66 0.62 0.63 0.61 0.59 0.60 0.60
0.89 0.85 0.90 0.88 0.87 0.92 0.91 0.90 0.82 0.79 0.80 0.79 0.71 0.65 0.56 0.66 0.65 0.67 0.69 0.71 0.72 0.73 0.73 0.71 0.70 0.70 0.70 0.70 0.67 0.67 0.68 0.68 0.66 0.67 0.65 0.64 0.64 0.59 0.61 0.61 0.60 0.59 0.60
0.98 0.82 0.81 0.84 0.88 0.83 0.76 0.73 0.74 0.72 0.73 0.70 0.66 0.61 0.57 0.51 0.60 0.66 0.71 0.73 0.76 0.76 0.76 0.75 0.73 0.76 0.76 0.78 0.75 0.68 0.67 0.67 0.69 0.67 0.62 0.61 0.64 0.64 0.64 0.62 0.63 0.61 0.61
0.81 0.86 0.74 0.78 0.78 0.72 0.63 0.66 0.74 0.72 0.72 0.73 0.71 0.69 0.67 0.68 0.67 0.68 0.67 0.69 0.75 0.77 0.78 0.78 0.78 0.82 0.84 0.88 0.87 0.80 0.76 0.74 0.71 0.69 0.67 0.65 0.66 0.66 0.65 0.64 0.63 0.63 0.64
0.73 0.76 0.76 0.76 0.72 0.71 0.66 0.69 0.73 0.72 0.72 0.72 0.71 0.70 0.71 0.71 0.72 0.73 0.75 0.80 0.83 0.84 0.87 0.89 0.92 0.92 0.93 0.94 0.89 0.83 0.82 0.80 0.77 0.73 0.71 0.74 0.71 0.70 0.70 0.69 0.72 0.73 0.71
0.72 0.74 0.73 0.74 0.73 0.74 0.71 0.70 0.71 0.73 0.76 0.77 0.77 0.78 0.79 0.81 0.82 0.88 0.88 0.90 0.92 0.94 0.96 0.98 0.99 0.98 0.96 0.97 0.93 0.87 0.83 0.81 0.77 0.75 0.77 0.78 0.76 0.76 0.77 0.75 0.76 0.77 0.77

GFSGL_prec_pwat_168.txt.gz
Precipitable_Water
1.84 1.80 1.70 1.64 1.61 1.64 1.68 1.72 1.76 1.81 1.80 1.77 1.85 1.73 1.85 1.84 1.80 1.70 1.55 1.62 1.56 1.55 1.57 1.57 1.49 1.53 1.47 1.57 1.74 1.69 1.59 1.58 1.35 1.41 1.56 1.69 1.66 1.68 1.84 1.91 1.91 1.91 2.07
1.85 1.84 1.90 1.80 1.73 1.62 1.52 1.61 1.79 1.79 1.79 1.78 1.86 1.80 1.84 1.94 1.85 1.75 1.70 1.63 1.69 1.52 1.52 1.49 1.54 1.70 1.62 1.71 1.87 1.75 1.72 1.73 1.57 1.37 1.43 1.63 1.68 1.85 1.87 1.83 1.98 2.13 2.14
1.61 1.74 1.91 1.98 1.91 1.76 1.65 1.53 1.59 1.74 1.79 1.81 1.79 1.74 1.79 1.84 1.73 1.80 1.64 1.61 1.64 1.76 1.62 1.56 1.52 1.56 1.51 1.56 1.65 1.65 1.65 1.63 1.57 1.42 1.36 1.53 1.56 1.84 1.91 1.87 1.94 2.10 2.20
1.60 1.62 1.73 1.92 2.01 1.96 1.83 1.70 1.56 1.62 1.71 1.77 1.83 1.80 1.77 1.80 1.71 1.53 1.62 1.67 1.61 1.50 1.58 1.57 1.54 1.56 1.62 1.49 1.49 1.57 1.60 1.54 1.54 1.55 1.52 1.50 1.56 1.68 1.73 1.66 1.69 1.85 1.87
1.55 1.65 1.81 1.94 2.09 2.05 2.09 2.00 1.85 1.67 1.63 1.70 1.79 1.83 1.77 1.66 1.62 1.63 1.64 1.59 1.57 1.58 1.62 1.60 1.60 1.61 1.63 1.70 1.63 1.61 1.66 1.70 1.64 1.56 1.52 1.54 1.50 1.49 1.47 1.61 1.61 1.73 1.84
1.57 1.64 1.80 1.81 2.03 1.98 2.04 2.00 2.10 1.95 1.80 1.67 1.74 1.82 1.76 1.66 1.64 1.65 1.64 1.60 1.57 1.61 1.62 1.66 1.74 1.71 1.77 1.81 1.80 1.82 1.81 1.73 1.62 1.62 1.59 1.56 1.61 1.69 1.74 1.73 1.76 1.74 1.63
1.61 1.69 1.78 1.84 1.82 1.98 1.87 1.89 1.97 1.92 1.96 1.82 1.75 1.76 1.76 1.67 1.64 1.63 1.66 1.63 1.60 1.57 1.69 1.72 1.72 1.77 1.79 1.81 1.83 1.86 1.87 1.90 1.92 1.81 1.66 1.65 1.67 1.79 1.82 1.79 1.81 1.75 1.69
1.55 1.62 1.72 1.81 1.83 1.85 1.80 1.66 1.82 1.97 1.86 1.87 1.88 1.86 1.84 1.78 1.76 1.72 1.67 1.66 1.65 1.64 1.66 1.70 1.75 1.73 1.78 1.74 1.71 1.69 1.74 1.80 1.81 1.78 1.74 1.73 1.79 1.84 1.83 1.81 1.77 1.74 1.75
1.44 1.52 1.61 1.68 1.70 1.80 1.84 1.87 1.92 1.89 1.81 1.82 1.86 1.83 1.87 1.85 1.85 1.79 1.78 1.73 1.68 1.65 1.71 1.72 1.71 1.67 1.72 1.70 1.65 1.60 1.63 1.65 1.75 1.81 1.82 1.79 1.80 1.84 1.85 1.79 1.67 1.62 1.53
1.10 1.21 1.36 1.45 1.48 1.53 1.66 1.77 1.84 1.78 1.77 1.90 1.86 1.85 1.95 1.94 1.92 1.92 1.96 1.87 1.73 1.72 1.75 1.77 1.83 1.86 1.87 1.87 1.81 1.73 1.65 1.67 1.71 1.71 1.73 1.74 1.75 1.76 1.75 1.69 1.63 1.50 1.52
1.29 1.30 1.25 1.31 1.36 1.42 1.54 1.69 1.76 1.78 1.78 1.84 1.85 1.89 1.90 2.02 2.03 2.06 2.06 2.00 1.89 1.87 1.90 1.90 1.98 2.04 2.03 1.98 1.96 1.92 1.86 1.88 1.81 1.80 1.78 1.76 1.76 1.77 1.79 1.79 1.80 1.71 1.61
1.36 1.33 1.29 1.18 1.22 1.32 1.40 1.58 1.71 1.75 1.71 1.70 1.75 1.82 1.88 1.94 1.94 1.90 1.90 1.92 1.92 1.86 1.85 1.94 1.99 1.99 2.03 2.01 2.03 2.03 2.01 1.97 1.90 1.87 1.80 1.77 1.75 1.75 1.77 1.83 1.83 1.80 1.80
1.24 1.22 1.19 1.19 1.17 1.24 1.30 1.41 1.51 1.67 1.70 1.69 1.70 1.71 1.72 1.79 1.78 1.75 1.70 1.71 1.81 1.83 1.87 1.89 1.93 1.93 1.94 1.95 1.98 1.98 1.99 1.93 1.83 1.74 1.71 1.74 1.79 1.81 1.79 1.75 1.76 1.73 1.70
1.10 1.11 1.12 1.08 1.09 1.13 1.24 1.33 1.37 1.40 1.44 1.50 1.57 1.60 1.62 1.65 1.60 1.61 1.63 1.63 1.67 1.71 1.81 1.89 1.92 1.88 1.90 1.85 1.78 1.78 1.80 1.77 1.71 1.63 1.63 1.64 1.64 1.57 1.51 1.50 1.43 1.43 1.38
1.03 1.04 1.09 1.07 1.02 1.00 1.03 1.13 1.24 1.36 1.40 1.38 1.44 1.48 1.49 1.51 1.57 1.63 1.61 1.58 1.58 1.59 1.60 1.61 1.60 1.61 1.58 1.55 1.53 1.54 1.55 1.51 1.43 1.41 1.38 1.38 1.37 1.35 1.34 1.33 1.25 1.20 1.11
0.96 1.01 1.05 1.05 1.04 1.02 0.99 1.02 1.18 1.29 1.36 1.43 1.43 1.45 1.47 1.55 1.58 1.57 1.59 1.56 1.54 1.51 1.42 1.34 1.30 1.29 1.25 1.27 1.28 1.29 1.32 1.33 1.33 1.34 1.33 1.31 1.27 1.25 1.16 1.11 1.06 0.99 0.90
0.93 1.01 1.01 0.96 1.01 1.01 1.02 1.01 0.98 1.17 1.27 1.30 1.33 1.38 1.43 1.46 1.46 1.48 1.48 1.46 1.47 1.48 1.38 1.36 1.31 1.30 1.29 1.30 1.33 1.31 1.28 1.31 1.31 1.23 1.18 1.12 1.03 0.97 0.87 0.83 0.81 0.80 0.73
0.91 0.97 0.98 0.98 1.00 0.96 0.98 0.99 1.00 1.01 1.03 1.12 1.26 1.30 1.35 1.39 1.44 1.46 1.44 1.45 1.38 1.41 1.36 1.30 1.25 1.25 1.23 1.21 1.19 1.13 1.07 1.05 1.01 0.97 0.91 0.85 0.77 0.72 0.69 0.67 0.67 0.64 0.64
0.90 0.95 0.98 0.99 1.02 0.98 1.00 1.00 0.97 1.03 1.05 1.06 1.12 1.20 1.26 1.30 1.34 1.38 1.38 1.31 1.24 1.23 1.22 1.19 1.14 1.06 1.01 0.94 0.90 0.86 0.84 0.82 0.81 0.76 0.69 0.67 0.69 0.68 0.65 0.66 0.64 0.65 0.63
0.97 0.98 0.95 0.96 0.94 0.95 0.97 0.96 0.98 1.00 1.00 1.00 1.01 1.05 1.14 1.19 1.19 1.22 1.22 1.20 1.15 1.11 1.06 0.98 0.89 0.81 0.74 0.68 0.66 0.68 0.65 0.66 0.67 0.67 0.66 0.66 0.65 0.65 0.63 0.62 0.61 0.60 0.59
0.92 0.89 0.91 0.90 0.92 0.92 0.94 0.96 0.98 0.96 0.96 0.91 0.87 0.88 0.95 0.94 0.93 0.96 0.98 0.97 0.92 0.81 0.80 0.80 0.78 0.74 0.72 0.69 0.65 0.65 0.63 0.62 0.65 0.65 0.64 0.65 0.67 0.63 0.63 0.61 0.59 0.60 0.59
0.89 0.83 0.84 0.83 0.89 0.89 0.88 0.87 0.87 0.87 0.82 0.80 0.80 0.81 0.72 0.74 0.70 0.68 0.69 0.68 0.70 0.74 0.76 0.78 0.73 0.75 0.74 0.72 0.66 0.67 0.68 0.67 0.66 0.67 0.66 0.66 0.64 0.62 0.61 0.59 0.59 0.57 0.57
0.88 0.86 0.83 0.84 0.80 0.80 0.79 0.77 0.76 0.78 0.78 0.79 0.77 0.72 0.65 0.62 0.62 0.61 0.64 0.69 0.71 0.72 0.74 0.73 0.70 0.72 0.76 0.79 0.80 0.73 0.70 0.68 0.71 0.72 0.67 0.64 0.62 0.62 0.62 0.59 0.58 0.58 0.57
0.85 0.86 0.84 0.81 0.82 0.81 0.75 0.72 0.74 0.73 0.73 0.78 0.78 0.76 0.70 0.70 0.72 0.70 0.73 0.77 0.77 0.79 0.81 0.80 0.79 0.80 0.82 0.84 0.86 0.80 0.78 0.75 0.74 0.73 0.68 0.64 0.62 0.64 0.63 0.62 0.61 0.61 0.61
0.77 0.76 0.74 0.74 0.77 0.73 0.66 0.62 0.68 0.69 0.70 0.71 0.71 0.71 0.67 0.65 0.66 0.70 0.73 0.75 0.80 0.84 0.87 0.90 0.89 0.90 0.89 0.90 0.91 0.87 0.81 0.77 0.76 0.74 0.71 0.67 0.66 0.65 0.66 0.67 0.67 0.68 0.68
0.76 0.75 0.72 0.75 0.75 0.71 0.70 0.66 0.67 0.70 0.71 0.73 0.73 0.73 0.71 0.74 0.76 0.78 0.83 0.84 0.86 0.90 0.94 0.95 0.96 0.96 0.98 0.98 0.98 0.95 0.88 0.81 0.77 0.77 0.73 0.69 0.69 0.71 0.74 0.72 0.72 0.71 0.71

GFSGL_prec_pwat_171.txt.gz
Precipitable_Water
1.79 1.80 1.76 1.70 1.66 1.59 1.65 1.70 1.66 1.67 1.69 1.69 1.65 1.64 1.62 1.62 1.68 1.64 1.67 1.59 1.53 1.61 1.63 1.56 1.53 1.56 1.50 1.62 1.66 1.69 1.67 1.57 1.34 1.44 1.59 1.63 1.65 1.72 1.82 1.88 1.92 1.87 1.92
1.74 1.81 1.76 1.72 1.74 1.65 1.57 1.63 1.73 1.70 1.72 1.77 1.74 1.75 1.73 1.66 1.74 1.76 1.74 1.70 1.52 1.58 1.58 1.54 1.52 1.65 1.60 1.66 1.61 1.63 1.87 1.85 1.60 1.44 1.54 1.58 1.56 1.71 1.71 1.79 1.89 1.92 2.01
1.52 1.69 1.79 1.79 1.78 1.77 1.70 1.65 1.66 1.68 1.75 1.74 1.78 1.69 1.75 1.78 1.77 1.86 1.80 1.70 1.66 1.65 1.73 1.62 1.52 1.53 1.44 1.65 1.67 1.70 1.78 1.76 1.69 1.56 1.44 1.56 1.56 1.64 1.64 1.79 1.83 1.84 1.97
1.48 1.59 1.66 1.77 1.76 1.90 2.02 1.93 1.79 1.64 1.59 1.77 1.80 1.81 1.77 1.79 1.82 1.83 1.77 1.66 1.66 1.59 1.59 1.68 1.65 1.56 1.54 1.55 1.61 1.54 1.62 1.63 1.61 1.48 1.44 1.51 1.58 1.67 1.68 1.58 1.57 1.71 1.72
1.37 1.44 1.44 1.53 1.75 1.85 2.09 2.03 2.06 1.93 1.71 1.61 1.77 1.81 1.82 1.83 1.84 1.81 1.82 1.70 1.61 1.58 1.67 1.63 1.61 1.60 1.57 1.64 1.63 1.58 1.60 1.55 1.56 1.56 1.54 1.53 1.54 1.56 1.51 1.60 1.55 1.64 1.71
1.35 1.35 1.45 1.54 1.66 1.82 1.95 1.97 1.82 1.92 1.85 1.73 1.63 1.72 1.79 1.85 1.91 1.87 1.75 1.67 1.62 1.59 1.54 1.61 1.67 1.64 1.60 1.63 1.67 1.75 1.83 1.67 1.66 1.69 1.68 1.58 1.61 1.66 1.74 1.73 1.73 1.70 1.62
1.38 1.45 1.50 1.63 1.71 1.80 1.86 2.03 2.01 1.84 1.70 1.83 1.77 1.75 1.68 1.74 1.86 1.86 1.80 1.69 1.68 1.62 1.58 1.59 1.62 1.67 1.69 1.69 1.76 1.79 1.82 1.83 1.85 1.80 1.70 1.77 1.73 1.75 1.74 1.70 1.73 1.72 1.70
1.37 1.44 1.56 1.60 1.65 1.78 1.89 1.93 1.95 2.00 1.93 1.89 1.84 1.89 1.86 1.68 1.78 1.89 1.84 1.72 1.68 1.66 1.63 1.63 1.58 1.67 1.79 1.80 1.77 1.81 1.80 1.84 1.86 1.88 1.86 1.81 1.77 1.76 1.75 1.76 1.75 1.75 1.78
1.27 1.36 1.50 1.61 1.66 1.70 1.72 1.76 1.86 1.92 1.94 1.91 1.87 1.92 1.87 1.86 1.85 1.86 1.87 1.69 1.64 1.66 1.66 1.68 1.67 1.64 1.75 1.82 1.78 1.70 1.66 1.62 1.71 1.75 1.78 1.78 1.80 1.80 1.80 1.77 1.65 1.59 1.52
1.04 1.15 1.32 1.43 1.52 1.58 1.67 1.71 1.76 1.80 1.86 1.91 1.82 1.88 1.86 1.82 1.96 1.91 1.91 1.82 1.71 1.74 1.76 1.76 1.71 1.68 1.69 1.71 1.69 1.65 1.54 1.61 1.68 1.70 1.74 1.78 1.82 1.82 1.82 1.78 1.72 1.58 1.59
1.16 1.23 1.21 1.26 1.28 1.30 1.38 1.48 1.54 1.66 1.71 1.71 1.70 1.74 1.85 1.86 1.91 1.95 1.92 1.90 1.83 1.79 1.75 1.72 1.75 1.80 1.80 1.81 1.86 1.88 1.89 1.94 1.85 1.85 1.83 1.80 1.80 1.81 1.84 1.86 1.85 1.80 1.71
1.27 1.28 1.27 1.20 1.22 1.24 1.27 1.34 1.46 1.56 1.63 1.60 1.61 1.67 1.86 1.91 1.95 1.94 1.99 1.98 2.03 1.95 1.90 1.92 1.89 1.93 1.99 2.04 2.05 2.07 2.04 1.99 1.92 1.86 1.81 1.80 1.80 1.83 1.88 1.89 1.89 1.89 1.87
1.24 1.22 1.21 1.18 1.16 1.19 1.19 1.27 1.37 1.48 1.52 1.55 1.55 1.63 1.71 1.83 1.87 1.84 1.89 1.87 1.94 1.84 1.91 1.91 1.89 1.91 1.94 1.95 1.98 1.99 1.99 1.96 1.88 1.84 1.77 1.74 1.78 1.83 1.85 1.82 1.78 1.75 1.72
1.09 1.08 1.14 1.12 1.13 1.17 1.17 1.23 1.29 1.33 1.33 1.40 1.48 1.50 1.58 1.68 1.70 1.68 1.69 1.75 1.78 1.78 1.78 1.82 1.88 1.88 1.87 1.87 1.88 1.91 1.91 1.86 1.84 1.75 1.67 1.73 1.72 1.65 1.56 1.55 1.44 1.39 1.30
1.00 1.00 0.99 1.04 1.05 1.05 1.05 1.06 1.16 1.29 1.35 1.33 1.37 1.45 1.47 1.48 1.61 1.73 1.72 1.69 1.69 1.66 1.65 1.65 1.70 1.68 1.63 1.63 1.68 1.63 1.68 1.70 1.65 1.60 1.53 1.45 1.37 1.33 1.29 1.30 1.25 1.16 1.05
0.86 0.89 0.99 1.01 1.00 1.00 0.99 1.01 1.09 1.13 1.28 1.38 1.44 1.46 1.47 1.54 1.61 1.63 1.64 1.66 1.63 1.61 1.52 1.46 1.44 1.44 1.42 1.42 1.41 1.39 1.43 1.40 1.36 1.33 1.31 1.30 1.26 1.23 1.18 1.14 1.06 0.95 0.83
0.83 0.91 0.97 0.96 0.96 0.94 0.93 0.95 0.93 1.10 1.19 1.25 1.32 1.41 1.46 1.45 1.47 1.50 1.52 1.53 1.54 1.53 1.43 1.39 1.34 1.32 1.29 1.29 1.29 1.29 1.28 1.31 1.32 1.26 1.23 1.18 1.11 1.02 0.94 0.88 0.83 0.77 0.71
0.92 0.98 0.93 0.94 0.95 0.95 0.96 0.96 0.98 0.97 1.02 1.10 1.24 1.29 1.35 1.41 1.46 1.48 1.47 1.48 1.39 1.41 1.38 1.35 1.34 1.33 1.30 1.28 1.29 1.25 1.22 1.17 1.10 1.04 0.97 0.90 0.84 0.79 0.74 0.72 0.71 0.67 0.65
0.86 0.93 0.97 0.97 0.95 0.94 0.96 0.94 0.95 0.98 1.03 1.05 1.11 1.19 1.24 1.29 1.37 1.40 1.40 1.35 1.30 1.31 1.32 1.29 1.24 1.16 1.14 1.12 1.06 0.96 0.92 0.89 0.89 0.86 0.84 0.74 0.72 0.69 0.66 0.64 0.62 0.61 0.61
0.85 0.96 0.99 0.95 0.99 0.93 0.93 0.93 0.95 0.96 0.96 0.94 1.00 1.06 1.14 1.20 1.20 1.25 1.28 1.22 1.17 1.13 1.08 1.02 0.99 0.91 0.79 0.73 0.77 0.74 0.72 0.73 0.70 0.65 0.65 0.68 0.68 0.66 0.62 0.62 0.61 0.60 0.60
0.94 0.96 0.93 0.91 0.89 0.91 0.92 0.94 0.92 0.92 0.86 0.82 0.81 0.90 1.00 1.05 1.09 1.12 1.10 1.08 1.06 1.00 0.87 0.79 0.76 0.73 0.70 0.63 0.61 0.62 0.61 0.64 0.65 0.64 0.63 0.63 0.63 0.60 0.63 0.63 0.60 0.59 0.59
0.92 0.88 0.89 0.88 0.90 0.90 0.94 0.93 0.88 0.84 0.83 0.80 0.78 0.81 0.80 0.82 0.79 0.76 0.74 0.74 0.73 0.74 0.76 0.79 0.78 0.77 0.74 0.68 0.64 0.63 0.62 0.61 0.64 0.66 0.65 0.65 0.67 0.66 0.64 0.59 0.58 0.57 0.57
0.90 0.85 0.84 0.87 0.87 0.88 0.87 0.84 0.77 0.77 0.76 0.75 0.75 0.74 0.66 0.63 0.62 0.63 0.64 0.68 0.70 0.74 0.77 0.76 0.74 0.72 0.77 0.79 0.78 0.71 0.67 0.67 0.68 0.70 0.68 0.67 0.65 0.63 0.61 0.59 0.59 0.56 0.57
0.87 0.86 0.84 0.82 0.82 0.82 0.78 0.77 0.79 0.75 0.77 0.79 0.78 0.78 0.78 0.75 0.74 0.73 0.73 0.72 0.74 0.76 0.78 0.78 0.77 0.76 0.80 0.83 0.87 0.84 0.81 0.81 0.79 0.76 0.74 0.69 0.65 0.64 0.63 0.61 0.60 0.59 0.59
0.88 0.81 0.83 0.82 0.81 0.78 0.76 0.75 0.73 0.68 0.68 0.70 0.72 0.76 0.76 0.75 0.68 0.72 0.75 0.75 0.80 0.81 0.84 0.87 0.88 0.89 0.90 0.88 0.87 0.87 0.83 0.81 0.78 0.76 0.76 0.70 0.64 0.64 0.65 0.64 0.64 0.65 0.65
0.82 0.79 0.77 0.75 0.75 0.75 0.73 0.67 0.66 0.68 0.67 0.68 0.70 0.73 0.73 0.74 0.72 0.72 0.76 0.80 0.83 0.91 0.95 1.01 0.98 0.93 0.92 0.92 0.94 0.95 0.91 0.87 0.82 0.80 0.76 0.71 0.67 0.67 0.66 0.67 0.70 0.69 0.68

GFSGL_prec_pwat_174.txt.gz
Precipitable_Water
1.81 1.88 1.80 1.74 1.71 1.73 1.73 1.73 1.77 1.76 1.67 1.67 1.66 1.62 1.58 1.63 1.67 1.63 1.58 1.59 1.58 1.48 1.50 1.53 1.47 1.55 1.53 1.55 1.62 1.65 1.60 1.63 1.44 1.48 1.59 1.71 1.65 1.65 1.78 1.89 1.84 1.86 1.95
1.72 1.75 1.82 1.82 1.78 1.73 1.69 1.72 1.75 1.72 1.77 1.67 1.67 1.70 1.67 1.62 1.65 1.64 1.63 1.64 1.64 1.52 1.41 1.51 1.56 1.61 1.56 1.61 1.59 1.57 1.55 1.63 1.75 1.63 1.67 1.67 1.66 1.71 1.69 1.71 1.74 1.93 1.96
1.57 1.56 1.64 1.80 1.79 1.72 1.73 1.72 1.71 1.73 1.75 1.75 1.71 1.69 1.71 1.71 1.70 1.67 1.64 1.72 1.76 1.73 1.57 1.49 1.55 1.54 1.49 1.50 1.50 1.60 1.65 1.71 1.77 1.77 1.66 1.71 1.66 1.64 1.58 1.68 1.71 1.83 1.91
1.53 1.53 1.51 1.53 1.75 1.81 1.81 1.80 1.85 1.82 1.72 1.71 1.75 1.75 1.73 1.74 1.70 1.67 1.68 1.75 1.83 1.78 1.70 1.64 1.62 1.66 1.56 1.52 1.53 1.55 1.63 1.61 1.65 1.64 1.60 1.56 1.55 1.64 1.68 1.57 1.55 1.73 1.73
1.45 1.49 1.49 1.58 1.71 1.77 1.81 1.81 1.85 1.94 1.91 1.84 1.68 1.69 1.73 1.75 1.74 1.71 1.67 1.68 1.76 1.70 1.68 1.70 1.67 1.64 1.67 1.63 1.55 1.54 1.57 1.57 1.55 1.52 1.48 1.52 1.61 1.63 1.59 1.68 1.62 1.67 1.73
1.30 1.40 1.48 1.47 1.53 1.61 1.69 1.74 1.75 1.90 1.82 1.76 1.83 1.76 1.63 1.71 1.76 1.77 1.76 1.69 1.74 1.75 1.69 1.67 1.68 1.71 1.66 1.66 1.65 1.58 1.57 1.48 1.46 1.53 1.52 1.54 1.67 1.75 1.80 1.73 1.69 1.67 1.54
1.24 1.32 1.39 1.45 1.45 1.53 1.64 1.77 1.80 1.82 1.84 1.74 1.83 1.86 1.81 1.67 1.71 1.79 1.79 1.79 1.80 1.78 1.69 1.64 1.62 1.66 1.70 1.70 1.70 1.63 1.68 1.68 1.73 1.71 1.61 1.63 1.64 1.77 1.88 1.79 1.72 1.65 1.59
1.21 1.27 1.37 1.44 1.50 1.54 1.56 1.63 1.82 1.92 1.95 1.87 1.87 1.90 1.86 1.82 1.79 1.80 1.85 1.83 1.83 1.84 1.76 1.67 1.66 1.64 1.65 1.68 1.67 1.62 1.67 1.69 1.75 1.82 1.80 1.83 1.90 1.93 1.88 1.74 1.64 1.64 1.68
1.14 1.25 1.36 1.44 1.48 1.56 1.62 1.65 1.71 1.78 1.87 1.96 1.98 1.90 1.93 1.90 1.90 1.87 1.85 1.76 1.74 1.80 1.88 1.80 1.73 1.68 1.68 1.73 1.68 1.67 1.71 1.73 1.83 1.89 1.85 1.80 1.75 1.75 1.77 1.73 1.61 1.57 1.54
0.97 1.05 1.16 1.25 1.32 1.40 1.52 1.61 1.68 1.74 1.75 1.81 1.86 1.94 1.97 1.91 1.92 1.90 1.92 1.86 1.72 1.79 1.88 1.85 1.77 1.72 1.73 1.74 1.67 1.66 1.54 1.66 1.72 1.78 1.70 1.70 1.75 1.79 1.84 1.84 1.79 1.62 1.61
1.11 1.13 1.12 1.17 1.19 1.21 1.23 1.27 1.32 1.38 1.44 1.52 1.64 1.76 1.84 1.87 1.84 1.85 1.90 1.86 1.82 1.82 1.84 1.85 1.84 1.84 1.79 1.75 1.77 1.71 1.61 1.71 1.70 1.76 1.75 1.83 1.86 1.87 1.87 1.89 1.90 1.83 1.74
1.14 1.12 1.12 1.12 1.14 1.15 1.13 1.17 1.24 1.34 1.35 1.41 1.48 1.57 1.65 1.71 1.72 1.86 1.92 1.93 1.95 1.93 1.86 1.91 1.92 1.89 1.86 1.83 1.80 1.85 1.89 1.90 1.86 1.88 1.81 1.80 1.81 1.83 1.88 1.92 1.91 1.94 1.95
1.12 1.09 1.10 1.13 1.09 1.09 1.06 1.09 1.15 1.26 1.30 1.32 1.37 1.41 1.51 1.64 1.74 1.83 1.92 1.96 1.96 1.92 1.88 1.90 1.89 1.85 1.91 1.93 1.93 1.92 1.97 1.99 1.94 1.87 1.81 1.81 1.83 1.87 1.88 1.85 1.85 1.78 1.77
1.06 1.00 1.05 1.04 1.04 1.11 1.14 1.14 1.14 1.17 1.20 1.23 1.25 1.29 1.39 1.51 1.53 1.69 1.78 1.80 1.81 1.78 1.76 1.77 1.77 1.83 1.92 1.89 1.88 1.91 1.90 1.89 1.85 1.80 1.76 1.76 1.75 1.74 1.68 1.67 1.55 1.48 1.40
1.02 0.95 0.94 0.98 0.97 0.99 1.04 1.05 1.06 1.14 1.20 1.21 1.25 1.28 1.30 1.33 1.42 1.55 1.64 1.69 1.72 1.72 1.72 1.69 1.65 1.73 1.72 1.63 1.63 1.69 1.75 1.76 1.75 1.74 1.70 1.65 1.59 1.48 1.40 1.37 1.29 1.22 1.12
0.94 0.91 0.90 0.91 0.95 0.98 0.98 0.98 1.05 1.06 1.12 1.17 1.27 1.32 1.36 1.41 1.48 1.51 1.58 1.59 1.62 1.67 1.63 1.55 1.52 1.55 1.53 1.54 1.57 1.56 1.56 1.54 1.50 1.52 1.45 1.43 1.36 1.29 1.24 1.21 1.12 0.99 0.88
0.94 0.89 0.87 0.91 0.95 0.92 0.90 0.90 0.88 1.01 1.11 1.16 1.20 1.25 1.31 1.35 1.40 1.43 1.47 1.52 1.53 1.54 1.46 1.45 1.42 1.40 1.36 1.37 1.36 1.37 1.35 1.38 1.40 1.35 1.34 1.32 1.26 1.17 1.07 0.99 0.93 0.82 0.73
0.81 0.80 0.90 0.94 0.92 0.89 0.89 0.90 0.90 0.90 0.95 1.03 1.18 1.22 1.25 1.28 1.32 1.35 1.40 1.47 1.40 1.44 1.40 1.35 1.34 1.36 1.35 1.33 1.32 1.31 1.32 1.31 1.27 1.21 1.16 1.10 1.00 0.90 0.83 0.79 0.76 0.71 0.66
0.81 0.87 0.94 0.95 0.92 0.90 0.90 0.88 0.88 0.90 0.96 1.00 1.06 1.14 1.21 1.26 1.31 1.34 1.36 1.30 1.29 1.32 1.33 1.31 1.30 1.25 1.22 1.21 1.20 1.15 1.07 0.99 0.96 0.95 0.90 0.85 0.80 0.76 0.73 0.73 0.69 0.65 0.64
0.83 0.88 0.97 0.95 0.91 0.91 0.89 0.89 0.88 0.91 0.92 0.92 0.95 1.00 1.10 1.11 1.15 1.24 1.29 1.27 1.20 1.20 1.20 1.10 1.01 0.95 0.91 0.88 0.85 0.82 0.81 0.81 0.80 0.80 0.77 0.71 0.71 0.69 0.65 0.60 0.60 0.58 0.59
0.77 0.87 0.95 0.91 0.91 0.92 0.90 0.89 0.93 0.92 0.88 0.82 0.80 0.92 0.97 1.01 1.08 1.17 1.20 1.16 1.11 1.04 0.98 0.90 0.79 0.73 0.70 0.66 0.67 0.68 0.68 0.69 0.68 0.64 0.64 0.66 0.67 0.63 0.64 0.65 0.63 0.62 0.62
0.90 0.92 0.90 0.82 0.84 0.84 0.86 0.90 0.89 0.86 0.85 0.80 0.78 0.80 0.85 0.89 0.90 0.91 0.91 0.89 0.85 0.79 0.77 0.77 0.76 0.77 0.76 0.70 0.64 0.62 0.59 0.61 0.63 0.64 0.65 0.65 0.66 0.65 0.66 0.63 0.59 0.58 0.59
0.89 0.84 0.83 0.82 0.85 0.87 0.85 0.83 0.79 0.75 0.72 0.74 0.75 0.72 0.62 0.61 0.61 0.62 0.62 0.68 0.71 0.74 0.76 0.76 0.76 0.77 0.79 0.78 0.73 0.68 0.63 0.63 0.66 0.69 0.66 0.66 0.66 0.67 0.65 0.62 0.60 0.58 0.57
0.87 0.82 0.78 0.82 0.83 0.80 0.78 0.73 0.72 0.73 0.74 0.75 0.76 0.78 0.78 0.78 0.71 0.72 0.73 0.73 0.73 0.73 0.76 0.78 0.77 0.75 0.78 0.84 0.87 0.85 0.79 0.80 0.81 0.78 0.76 0.71 0.68 0.67 0.66 0.62 0.61 0.61 0.62
0.87 0.81 0.79 0.79 0.78 0.76 0.75 0.72 0.74 0.76 0.74 0.71 0.70 0.73 0.75 0.77 0.76 0.76 0.75 0.74 0.75 0.77 0.82 0.87 0.89 0.92 0.93 0.94 0.93 0.90 0.88 0.85 0.86 0.85 0.82 0.78 0.75 0.70 0.66 0.65 0.65 0.66 0.65
0.86 0.83 0.80 0.80 0.76 0.75 0.77 0.75 0.73 0.75 0.73 0.69 0.70 0.72 0.74 0.75 0.78 0.79 0.78 0.77 0.79 0.84 0.88 0.97 1.00 1.00 1.00 0.98 0.97 0.95 0.92 0.90 0.88 0.86 0.83 0.78 0.76 0.71 0.68 0.68 0.69 0.69 0.69